| time (UTC) | temp C | wind direction | speed KPH | gust KPH | rain 1hr cm | rain 24hr cm | rain mn cm | humidity % | barometer mb |
| 20260904052409 | 18 | 167 | 9.7 | 22.5 | 0.15 | 0.20 | 0.18 | 95 | 1009.0 |
| 20260904051407 | 18 | 168 | 8.0 | 20.9 | 0.13 | 0.18 | 0.15 | 95 | 1009.0 |
| 20260904045408 | 18 | 252 | 4.8 | 14.5 | 0.13 | 0.18 | 0.15 | 95 | 1009.0 |
| 20260904044407 | 18 | 222 | 4.8 | 12.9 | 0.13 | 0.18 | 0.15 | 94 | 1009.2 |
| 20260904042407 | 19 | 178 | 6.4 | 16.1 | 0.00 | 0.05 | 0.05 | 93 | 1009.6 |
| 20260904040407 | 19 | 162 | 8.0 | 22.5 | 0.00 | 0.05 | 0.05 | 92 | 1009.9 |
| 20260904034407 | 18 | 178 | 11.3 | 19.3 | 0.00 | 0.05 | 0.05 | 93 | 1010.2 |
| 20260904033407 | 18 | 156 | 6.4 | 24.1 | 0.00 | 0.05 | 0.05 | 93 | 1010.4 |
| 20260904032409 | 18 | 229 | 6.4 | 19.3 | 0.00 | 0.05 | 0.05 | 94 | 1010.2 |
| 20260904031407 | 18 | 150 | 8.0 | 25.7 | 0.00 | 0.05 | 0.05 | 94 | 1010.5 |
| 20260904024407 | 18 | 175 | 6.4 | 14.5 | 0.03 | 0.05 | 0.05 | 94 | 1010.9 |
| 20260904023407 | 18 | 171 | 4.8 | 12.9 | 0.05 | 0.05 | 0.05 | 94 | 1011.0 |
| 20260904022408 | 18 | 142 | 9.7 | 22.5 | 0.05 | 0.05 | 0.05 | 94 | 1010.9 |
| 20260904021407 | 18 | 193 | 6.4 | 16.1 | 0.05 | 0.05 | 0.05 | 94 | 1011.2 |
| 20260904020407 | 18 | 153 | 8.0 | 14.5 | 0.03 | 0.05 | 0.03 | 94 | 1011.3 |
| 20260904015408 | 18 | 180 | 4.8 | 12.9 | 0.03 | 0.05 | 0.03 | 93 | 1011.5 |
| 20260904014407 | 18 | 206 | 6.4 | 17.7 | 0.03 | 0.05 | 0.03 | 93 | 1011.7 |
| 20260904013407 | 18 | 198 | 6.4 | 17.7 | 0.00 | 0.03 | 0.00 | 93 | 1012.1 |
| 20260904010407 | 18 | 163 | 4.8 | 11.3 | 0.00 | 0.03 | 0.00 | 92 | 1012.4 |
| 20260904004407 | 18 | 189 | 8.0 | 16.1 | 0.00 | 0.03 | 0.00 | 92 | 1012.5 |
| 20260904003408 | 18 | 175 | 4.8 | 11.3 | 0.00 | 0.03 | 0.00 | 92 | 1012.8 |
| 20260904002407 | 18 | 192 | 1.6 | 9.7 | 0.00 | 0.03 | 0.00 | 92 | 1013.0 |
| 20260904001407 | 18 | 178 | 4.8 | 11.3 | 0.00 | 0.03 | 0.00 | 91 | 1013.0 |
| 20260904000407 | 18 | 167 | 4.8 | 14.5 | 0.00 | 0.03 | 0.00 | 91 | 1013.1 |
| 20260903234407 | 18 | 188 | 1.6 | 6.4 | 0.00 | 0.03 | 0.00 | 91 | 1013.7 |
| 20260903233407 | 18 | 215 | 3.2 | 12.9 | 0.00 | 0.03 | 0.00 | 90 | 1013.9 |
| 20260903231407 | 18 | 155 | 4.8 | 8.0 | 0.00 | 0.03 | 0.00 | 90 | 1014.1 |
| 20260903225407 | 18 | 190 | 3.2 | 12.9 | 0.00 | 0.03 | 0.00 | 91 | 1014.1 |
| 20260903223407 | 18 | 240 | 3.2 | 11.3 | 0.00 | 0.03 | 0.00 | 91 | 1014.5 |
| 20260903222408 | 17 | 196 | 1.6 | 6.4 | 0.00 | 0.03 | 0.00 | 90 | 1014.6 |
| 20260903221407 | 18 | 215 | 0.0 | 4.8 | 0.00 | 0.03 | 0.00 | 90 | 1014.7 |
| 20260903215411 | 18 | 205 | 3.2 | 8.0 | 0.00 | 0.03 | 0.03 | 89 | 1014.7 |
| 20260903214409 | 18 | 251 | 3.2 | 8.0 | 0.00 | 0.03 | 0.03 | 89 | 1015.0 |
| 20260903212409 | 18 | 231 | 4.8 | 11.3 | 0.00 | 0.03 | 0.03 | 88 | 1015.2 |
| 20260903211409 | 18 | 221 | 1.6 | 4.8 | 0.00 | 0.03 | 0.03 | 88 | 1015.1 |
| 20260903210410 | 18 | 231 | 4.8 | 9.7 | 0.00 | 0.03 | 0.03 | 87 | 1015.1 |
| 20260903205409 | 18 | 230 | 1.6 | 8.0 | 0.00 | 0.03 | 0.03 | 87 | 1015.4 |
| 20260903204409 | 18 | 197 | 3.2 | 8.0 | 0.00 | 0.03 | 0.03 | 86 | 1015.3 |
| 20260903203409 | 18 | 268 | 3.2 | 9.7 | 0.00 | 0.03 | 0.03 | 86 | 1015.3 |
| 20260903202410 | 18 | 220 | 4.8 | 16.1 | 0.00 | 0.03 | 0.03 | 85 | 1015.2 |
| 20260903201409 | 18 | 242 | 3.2 | 8.0 | 0.00 | 0.03 | 0.03 | 85 | 1015.5 |
| 20260903200409 | 18 | 226 | 3.2 | 11.3 | 0.00 | 0.03 | 0.03 | 85 | 1015.5 |
| 20260903195409 | 18 | 249 | 4.8 | 11.3 | 0.00 | 0.03 | 0.03 | 85 | 1015.6 |
| 20260903194409 | 17 | 248 | 3.2 | 8.0 | 0.00 | 0.03 | 0.03 | 85 | 1015.4 |
| 20260903193409 | 17 | 226 | 3.2 | 6.4 | 0.00 | 0.03 | 0.03 | 84 | 1015.5 |
| 20260903190410 | 18 | 243 | 4.8 | 12.9 | 0.00 | 0.03 | 0.03 | 83 | 1015.5 |
| 20260903185409 | 18 | 204 | 3.2 | 9.7 | 0.00 | 0.03 | 0.03 | 82 | 1015.7 |
| 20260903184409 | 18 | 279 | 4.8 | 11.3 | 0.00 | 0.03 | 0.03 | 81 | 1015.4 |
| 20260903183409 | 18 | 246 | 4.8 | 12.9 | 0.00 | 0.03 | 0.03 | 81 | 1015.5 |
| 20260903182409 | 19 | 250 | 6.4 | 20.9 | 0.00 | 0.03 | 0.03 | 80 | 1015.2 |
| 20260903181409 | 19 | 250 | 6.4 | 14.5 | 0.00 | 0.03 | 0.03 | 80 | 1015.3 |
| 20260903180409 | 19 | 282 | 4.8 | 11.3 | 0.00 | 0.03 | 0.03 | 81 | 1015.4 |
| 20260903174409 | 20 | 288 | 4.8 | 11.3 | 0.00 | 0.03 | 0.03 | 80 | 1015.2 |
| 20260903172411 | 20 | 304 | 8.0 | 19.3 | 0.00 | 0.03 | 0.03 | 78 | 1015.4 |
| 20260903171409 | 20 | 271 | 8.0 | 19.3 | 0.00 | 0.03 | 0.03 | 78 | 1015.1 |
| 20260903165410 | 20 | 281 | 11.3 | 24.1 | 0.00 | 0.03 | 0.03 | 77 | 1015.0 |
| 20260903164409 | 20 | 226 | 9.7 | 25.7 | 0.00 | 0.03 | 0.03 | 77 | 1015.0 |
| 20260903163409 | 20 | 262 | 11.3 | 19.3 | 0.00 | 0.03 | 0.03 | 77 | 1015.0 |
| 20260903162409 | 21 | 271 | 12.9 | 27.4 | 0.00 | 0.03 | 0.03 | 76 | 1015.0 |
| 20260903161409 | 21 | 296 | 8.0 | 17.7 | 0.00 | 0.03 | 0.03 | 77 | 1015.0 |
| 20260903160409 | 21 | 327 | 12.9 | 32.2 | 0.00 | 0.03 | 0.03 | 75 | 1015.0 |
| 20260903155411 | 21 | 263 | 14.5 | 33.8 | 0.00 | 0.03 | 0.03 | 73 | 1014.9 |
| 20260903154410 | 21 | 287 | 12.9 | 32.2 | 0.00 | 0.03 | 0.03 | 75 | 1014.6 |
| 20260903153410 | 21 | 281 | 16.1 | 30.6 | 0.00 | 0.03 | 0.03 | 73 | 1014.7 |
| 20260903130403 | 22 | 268 | 11.3 | 24.1 | 0.00 | 0.03 | 0.03 | 76 | 1014.1 |
| 20260903125403 | 22 | 258 | 11.3 | 24.1 | 0.00 | 0.15 | 0.03 | 77 | 1014.1 |
| 20260903124404 | 22 | 226 | 12.9 | 30.6 | 0.00 | 0.15 | 0.03 | 78 | 1013.9 |
| 20260903123403 | 22 | 297 | 14.5 | 30.6 | 0.00 | 0.15 | 0.03 | 78 | 1013.9 |
| 20260903122403 | 21 | 246 | 9.7 | 24.1 | 0.00 | 0.15 | 0.03 | 80 | 1013.9 |
| 20260903121403 | 21 | 239 | 12.9 | 22.5 | 0.00 | 0.15 | 0.03 | 80 | 1013.8 |
| 20260903120404 | 21 | 261 | 9.7 | 20.9 | 0.00 | 0.15 | 0.03 | 82 | 1013.8 |
| 20260903115405 | 21 | 248 | 12.9 | 30.6 | 0.00 | 0.15 | 0.03 | 82 | 1013.8 |
| 20260903114403 | 21 | 234 | 8.0 | 20.9 | 0.00 | 0.15 | 0.03 | 84 | 1013.7 |
| 20260903113403 | 21 | 264 | 11.3 | 22.5 | 0.03 | 0.15 | 0.03 | 85 | 1013.5 |
| 20260903112404 | 21 | 183 | 8.0 | 24.1 | 0.03 | 0.15 | 0.03 | 86 | 1013.3 |
| 20260903111404 | 21 | 229 | 9.7 | 27.4 | 0.03 | 0.15 | 0.03 | 88 | 1013.6 |
| 20260903103403 | 20 | 244 | 6.4 | 17.7 | 0.00 | 0.15 | 0.00 | 90 | 1014.0 |
| 20260903102403 | 20 | 218 | 9.7 | 20.9 | 0.00 | 0.15 | 0.00 | 89 | 1014.1 |
| 20260903101405 | 20 | 197 | 9.7 | 17.7 | 0.00 | 0.15 | 0.00 | 90 | 1013.9 |
| 20260903100403 | 19 | 185 | 6.4 | 17.7 | 0.00 | 0.15 | 0.00 | 92 | 1013.9 |
| 20260903095404 | 18 | 265 | 6.4 | 17.7 | 0.00 | 0.15 | 0.00 | 92 | 1014.0 |
| 20260903094405 | 18 | 193 | 8.0 | 19.3 | 0.00 | 0.15 | 0.00 | 92 | 1014.0 |
| 20260903093404 | 18 | 23 | 6.4 | 14.5 | 0.00 | 0.15 | 0.00 | 91 | 1014.1 |
| 20260903091404 | 18 | 186 | 6.4 | 14.5 | 0.00 | 0.15 | 0.00 | 91 | 1013.9 |
| 20260903084404 | 18 | 178 | 4.8 | 14.5 | 0.00 | 0.15 | 0.00 | 92 | 1014.1 |
| 20260903083404 | 18 | 201 | 6.4 | 17.7 | 0.00 | 0.15 | 0.00 | 91 | 1014.2 |
| 20260903081404 | 18 | 238 | 6.4 | 19.3 | 0.00 | 0.15 | 0.00 | 88 | 1014.1 |
| 20260903075405 | 18 | 144 | 4.8 | 20.9 | 0.00 | 0.15 | 0.00 | 88 | 1014.0 |
| 20260903074404 | 18 | 168 | 8.0 | 25.7 | 0.00 | 0.15 | 0.00 | 88 | 1014.0 |
| 20260903073404 | 18 | 111 | 8.0 | 22.5 | 0.00 | 0.15 | 0.00 | 88 | 1014.0 |
| 20260903072405 | 18 | 184 | 9.7 | 29.0 | 0.00 | 0.15 | 0.00 | 88 | 1013.9 |
| 20260903071404 | 17 | 284 | 8.0 | 20.9 | 0.00 | 0.15 | 0.00 | 88 | 1014.0 |
| 20260903065404 | 17 | 143 | 8.0 | 19.3 | 0.00 | 0.15 | 0.00 | 88 | 1014.0 |
| 20260903064405 | 17 | 174 | 6.4 | 22.5 | 0.00 | 0.15 | 0.00 | 88 | 1013.8 |
| 20260903063404 | 17 | 146 | 8.0 | 14.5 | 0.00 | 0.15 | 0.00 | 88 | 1013.9 |
| 20260903062404 | 17 | 190 | 6.4 | 17.7 | 0.00 | 0.15 | 0.00 | 87 | 1014.2 |
| 20260903061404 | 17 | 230 | 8.0 | 24.1 | 0.00 | 0.15 | 0.00 | 86 | 1014.3 |
| 20260903055404 | 17 | 185 | 8.0 | 22.5 | 0.00 | 0.15 | 0.00 | 85 | 1014.3 |
| 20260903054404 | 17 | 202 | 8.0 | 16.1 | 0.00 | 0.15 | 0.00 | 85 | 1014.5 |
| 20260903053404 | 17 | 242 | 6.4 | 12.9 | 0.00 | 0.15 | 0.00 | 84 | 1014.5 |